Retour au catalogue

COSMOS 2499 DEB

LostPO
NORAD 55726·DEBRIS·🇷🇺 Russia

Lancé May 23, 2014 depuis Plesetsk Cosmodrome

Loading…

Prochains Passages (prochaines 24 heures)

TLE

PériméSource: Space-Track

Époque: Mar 18, 2023, 22:38 UTC

1 55726U 14028AN  23077.94320041 -.00029312  00000-0 -11992+0 0  9992
2 55726  82.3344 332.0236 0149930 280.8272  77.5986 12.82043536  7794

Suivez COSMOS 2499 DEB en temps réel avec AllMySat

Download on the App Store